Time,TemperatureF,DewpointF,PressureIn,WindDirection,WindDirectionDegrees,WindSpeedMPH,WindSpeedGustMPH,Humidity,HourlyPrecipIn,Conditions,Clouds,dailyrainin,SoftwareType,DateUTC
2013-02-09 00:09:00,22.2,19.0,30.27,SSE,159,3.0,8.0,86,0.00,,,0.00,weatherlink.com 1.10,2013-02-09 06:09:00,
2013-02-09 00:24:00,22.6,19.0,30.27,SSE,163,4.0,11.0,86,0.00,,,0.00,weatherlink.com 1.10,2013-02-09 06:24:00,
2013-02-09 00:39:00,22.7,19.0,30.27,SSE,153,9.0,9.0,86,0.00,,,0.00,weatherlink.com 1.10,2013-02-09 06:39:00,
2013-02-09 00:54:00,22.8,19.0,30.26,SSE,150,6.0,10.0,86,0.00,,,0.00,weatherlink.com 1.10,2013-02-09 06:54:00,
2013-02-09 01:09:00,23.1,20.0,30.27,SE,142,6.0,8.0,87,0.00,,,0.00,weatherlink.com 1.10,2013-02-09 07:09:00,
2013-02-09 01:24:00,23.5,20.0,30.25,SSE,150,5.0,13.0,87,0.00,,,0.00,weatherlink.com 1.10,2013-02-09 07:24:00,
2013-02-09 01:39:00,23.9,21.0,30.25,South,176,8.0,17.0,87,0.00,,,0.00,weatherlink.com 1.10,2013-02-09 07:39:00,
2013-02-09 01:54:00,24.1,21.0,30.25,SW,232,4.0,18.0,87,0.00,,,0.00,weatherlink.com 1.10,2013-02-09 07:54:00,
2013-02-09 02:09:00,24.1,21.0,30.25,SSE,154,7.0,13.0,87,0.00,,,0.00,weatherlink.com 1.10,2013-02-09 08:09:00,
2013-02-09 02:25:00,24.2,21.0,30.25,SSE,148,9.0,13.0,87,0.00,,,0.00,weatherlink.com 1.10,2013-02-09 08:25:00,
2013-02-09 02:40:00,24.2,21.0,30.24,SE,139,6.0,14.0,87,0.00,,,0.00,weatherlink.com 1.10,2013-02-09 08:40:00,
2013-02-09 02:55:00,24.3,21.0,30.23,SE,131,7.0,13.0,88,0.00,,,0.00,weatherlink.com 1.10,2013-02-09 08:55:00,
2013-02-09 03:10:00,24.2,21.0,30.22,SSE,152,7.0,16.0,88,0.00,,,0.00,weatherlink.com 1.10,2013-02-09 09:10:00,
2013-02-09 03:25:00,24.3,21.0,30.22,SE,135,4.0,14.0,88,0.00,,,0.00,weatherlink.com 1.10,2013-02-09 09:25:00,
2013-02-09 03:40:00,24.3,21.0,30.21,SSE,150,6.0,14.0,88,0.00,,,0.00,weatherlink.com 1.10,2013-02-09 09:40:00,
2013-02-09 03:55:00,24.4,21.0,30.20,SSE,157,7.0,13.0,88,0.00,,,0.00,weatherlink.com 1.10,2013-02-09 09:55:00,
2013-02-09 04:10:00,24.5,22.0,30.18,SSE,164,11.0,17.0,88,0.00,,,0.00,weatherlink.com 1.10,2013-02-09 10:10:00,
2013-02-09 04:25:00,24.7,22.0,30.19,ESE,105,8.0,16.0,88,0.00,,,0.00,weatherlink.com 1.10,2013-02-09 10:25:00,
2013-02-09 04:40:00,24.9,22.0,30.19,SSW,198,7.0,15.0,88,0.00,,,0.00,weatherlink.com 1.10,2013-02-09 10:40:00,
2013-02-09 04:55:00,25.1,22.0,30.19,SSE,156,9.0,13.0,88,0.00,,,0.00,weatherlink.com 1.10,2013-02-09 10:55:00,
2013-02-09 05:10:00,25.2,22.0,30.18,SE,141,10.0,14.0,88,0.00,,,0.00,weatherlink.com 1.10,2013-02-09 11:10:00,
2013-02-09 05:25:00,25.3,22.0,30.18,SSW,202,5.0,13.0,88,0.00,,,0.00,weatherlink.com 1.10,2013-02-09 11:25:00,
2013-02-09 05:40:00,25.3,22.0,30.17,SSW,205,3.0,13.0,88,0.00,,,0.00,weatherlink.com 1.10,2013-02-09 11:40:00,
2013-02-09 05:55:00,25.4,22.0,30.17,ESE,117,7.0,16.0,88,0.00,,,0.00,weatherlink.com 1.10,2013-02-09 11:55:00,
2013-02-09 06:10:00,25.4,22.0,30.16,ESE,111,14.0,17.0,88,0.00,,,0.00,weatherlink.com 1.10,2013-02-09 12:10:00,
2013-02-09 06:25:00,25.5,23.0,30.16,ESE,117,11.0,15.0,88,0.00,,,0.00,weatherlink.com 1.10,2013-02-09 12:25:00,
2013-02-09 06:40:00,25.6,23.0,30.15,South,188,6.0,14.0,88,0.00,,,0.00,weatherlink.com 1.10,2013-02-09 12:40:00,
2013-02-09 06:55:00,25.7,23.0,30.15,ESE,123,15.0,15.0,88,0.00,,,0.00,weatherlink.com 1.10,2013-02-09 12:55:00,
2013-02-09 07:10:00,25.7,23.0,30.15,SSW,193,5.0,14.0,88,0.00,,,0.00,weatherlink.com 1.10,2013-02-09 13:10:00,
2013-02-09 07:25:00,25.9,23.0,30.15,South,188,7.0,13.0,88,0.00,,,0.00,weatherlink.com 1.10,2013-02-09 13:25:00,
2013-02-09 07:40:00,25.9,23.0,30.15,South,188,4.0,12.0,88,0.00,,,0.00,weatherlink.com 1.10,2013-02-09 13:40:00,
2013-02-09 07:55:00,26.0,23.0,30.15,SSW,203,8.0,22.0,88,0.00,,,0.00,weatherlink.com 1.10,2013-02-09 13:55:00,
2013-02-09 08:10:00,26.1,23.0,30.15,SSE,149,5.0,17.0,88,0.00,,,0.00,weatherlink.com 1.10,2013-02-09 14:10:00,
2013-02-09 08:25:00,26.0,23.0,30.15,ESE,109,8.0,15.0,88,0.00,,,0.00,weatherlink.com 1.10,2013-02-09 14:25:00,
2013-02-09 08:40:00,26.0,23.0,30.14,SSE,166,10.0,16.0,88,0.00,,,0.00,weatherlink.com 1.10,2013-02-09 14:40:00,
2013-02-09 08:55:00,26.0,23.0,30.14,ESE,105,12.0,18.0,87,0.00,,,0.00,weatherlink.com 1.10,2013-02-09 14:55:00,
2013-02-09 09:10:00,26.1,23.0,30.14,SSW,210,9.0,16.0,87,0.00,,,0.00,weatherlink.com 1.10,2013-02-09 15:10:00,
2013-02-09 09:25:00,26.2,23.0,30.14,South,186,12.0,18.0,87,0.00,,,0.00,weatherlink.com 1.10,2013-02-09 15:25:00,
2013-02-09 09:40:00,26.6,23.0,30.14,SSE,161,3.0,13.0,87,0.00,,,0.00,weatherlink.com 1.10,2013-02-09 15:40:00,
2013-02-09 09:55:00,26.8,23.0,30.14,SSW,192,7.0,15.0,86,0.00,,,0.00,weatherlink.com 1.10,2013-02-09 15:55:00,
2013-02-09 10:10:00,26.9,23.0,30.14,SE,141,9.0,16.0,86,0.00,,,0.00,weatherlink.com 1.10,2013-02-09 16:10:00,
2013-02-09 10:25:00,27.2,24.0,30.14,SSW,210,7.0,19.0,86,0.00,,,0.00,weatherlink.com 1.10,2013-02-09 16:25:00,
2013-02-09 10:40:00,27.5,24.0,30.14,SSE,166,9.0,18.0,86,0.00,,,0.00,weatherlink.com 1.10,2013-02-09 16:40:00,
2013-02-09 10:55:00,27.7,24.0,30.14,South,173,8.0,17.0,85,0.00,,,0.00,weatherlink.com 1.10,2013-02-09 16:55:00,
2013-02-09 11:10:00,28.0,24.0,30.14,South,190,6.0,13.0,85,0.00,,,0.00,weatherlink.com 1.10,2013-02-09 17:10:00,
2013-02-09 11:25:00,28.3,24.0,30.13,SW,215,10.0,16.0,85,0.00,,,0.00,weatherlink.com 1.10,2013-02-09 17:25:00,
2013-02-09 11:40:00,28.5,25.0,30.12,SSE,164,6.0,16.0,85,0.00,,,0.00,weatherlink.com 1.10,2013-02-09 17:40:00,
2013-02-09 11:55:00,28.6,25.0,30.12,South,169,8.0,12.0,85,0.00,,,0.00,weatherlink.com 1.10,2013-02-09 17:55:00,
2013-02-09 12:10:00,28.8,25.0,30.12,South,185,6.0,18.0,85,0.00,,,0.00,weatherlink.com 1.10,2013-02-09 18:10:00,
2013-02-09 12:25:00,29.0,25.0,30.11,SSW,194,5.0,12.0,85,0.00,,,0.00,weatherlink.com 1.10,2013-02-09 18:25:00,
2013-02-09 12:40:00,29.1,25.0,30.10,SSE,157,5.0,15.0,85,0.00,,,0.00,weatherlink.com 1.10,2013-02-09 18:40:00,
2013-02-09 12:56:00,29.3,25.0,30.09,South,190,7.0,14.0,85,0.00,,,0.00,weatherlink.com 1.10,2013-02-09 18:56:00,
2013-02-09 13:11:00,29.5,26.0,30.09,SSE,148,6.0,9.0,86,0.00,,,0.00,weatherlink.com 1.10,2013-02-09 19:11:00,
2013-02-09 13:26:00,29.7,26.0,30.08,SSE,152,6.0,12.0,85,0.00,,,0.00,weatherlink.com 1.10,2013-02-09 19:26:00,
2013-02-09 13:41:00,29.8,26.0,30.07,SSW,197,3.0,11.0,86,0.00,,,0.00,weatherlink.com 1.10,2013-02-09 19:41:00,
2013-02-09 13:56:00,30.0,26.0,30.06,SSE,150,6.0,12.0,86,0.00,,,0.00,weatherlink.com 1.10,2013-02-09 19:56:00,
2013-02-09 14:11:00,30.1,26.0,30.05,SSW,202,7.0,12.0,86,0.00,,,0.00,weatherlink.com 1.10,2013-02-09 20:11:00,
2013-02-09 14:26:00,30.2,27.0,30.05,South,188,4.0,9.0,87,0.00,,,0.00,weatherlink.com 1.10,2013-02-09 20:26:00,
2013-02-09 14:41:00,30.4,27.0,30.04,ESE,109,10.0,13.0,87,0.00,,,0.00,weatherlink.com 1.10,2013-02-09 20:41:00,
2013-02-09 14:56:00,30.6,27.0,30.04,SSE,164,4.0,8.0,86,0.00,,,0.00,weatherlink.com 1.10,2013-02-09 20:56:00,
2013-02-09 15:11:00,30.6,27.0,30.04,ESE,116,5.0,11.0,86,0.00,,,0.00,weatherlink.com 1.10,2013-02-09 21:11:00,
2013-02-09 15:26:00,30.5,27.0,30.04,South,178,5.0,13.0,87,0.00,,,0.00,weatherlink.com 1.10,2013-02-09 21:26:00,
2013-02-09 15:41:00,30.4,27.0,30.03,South,178,6.0,12.0,87,0.00,,,0.00,weatherlink.com 1.10,2013-02-09 21:41:00,
2013-02-09 15:56:00,30.4,27.0,30.03,SE,140,4.0,15.0,88,0.00,,,0.00,weatherlink.com 1.10,2013-02-09 21:56:00,
2013-02-09 16:11:00,30.3,27.0,30.03,SE,144,6.0,14.0,88,0.00,,,0.00,weatherlink.com 1.10,2013-02-09 22:11:00,
2013-02-09 16:26:00,30.2,27.0,30.02,SSW,203,7.0,14.0,88,0.00,,,0.00,weatherlink.com 1.10,2013-02-09 22:26:00,
2013-02-09 16:41:00,30.2,27.0,30.02,SSE,153,6.0,12.0,89,0.00,,,0.00,weatherlink.com 1.10,2013-02-09 22:41:00,
2013-02-09 16:56:00,30.1,27.0,30.01,SSE,159,4.0,12.0,89,0.00,,,0.00,weatherlink.com 1.10,2013-02-09 22:56:00,
2013-02-09 17:11:00,29.8,27.0,30.01,SE,139,7.0,11.0,89,0.00,,,0.00,weatherlink.com 1.10,2013-02-09 23:11:00,
2013-02-09 17:26:00,29.6,27.0,30.01,SE,144,4.0,12.0,90,0.00,,,0.00,weatherlink.com 1.10,2013-02-09 23:26:00,
2013-02-09 17:41:00,29.4,27.0,30.01,ESE,119,5.0,10.0,90,0.00,,,0.00,weatherlink.com 1.10,2013-02-09 23:41:00,
2013-02-09 17:56:00,29.4,27.0,30.01,SE,128,6.0,12.0,91,0.00,,,0.00,weatherlink.com 1.10,2013-02-09 23:56:00,
2013-02-09 18:11:00,29.3,27.0,30.00,SE,136,6.0,9.0,91,0.00,,,0.00,weatherlink.com 1.10,2013-02-10 00:11:00,
2013-02-09 18:26:00,29.2,27.0,30.00,SE,145,6.0,10.0,91,0.00,,,0.00,weatherlink.com 1.10,2013-02-10 00:26:00,
2013-02-09 18:41:00,29.0,27.0,30.01,SSE,151,5.0,13.0,92,0.00,,,0.00,weatherlink.com 1.10,2013-02-10 00:41:00,
2013-02-09 18:56:00,28.9,27.0,30.00,SSE,159,6.0,11.0,92,0.00,,,0.00,weatherlink.com 1.10,2013-02-10 00:56:00,
2013-02-09 19:11:00,28.8,27.0,30.01,ESE,117,5.0,14.0,93,0.00,,,0.00,weatherlink.com 1.10,2013-02-10 01:11:00,
2013-02-09 19:26:00,28.7,27.0,30.01,SSW,200,5.0,14.0,92,0.00,,,0.00,weatherlink.com 1.10,2013-02-10 01:26:00,
2013-02-09 19:41:00,28.8,27.0,30.00,East,80,6.0,11.0,92,0.00,,,0.00,weatherlink.com 1.10,2013-02-10 01:41:00,
2013-02-09 19:56:00,28.8,27.0,30.00,SE,130,7.0,13.0,92,0.00,,,0.00,weatherlink.com 1.10,2013-02-10 01:56:00,
2013-02-09 20:11:00,28.7,27.0,30.00,SE,137,5.0,12.0,92,0.00,,,0.00,weatherlink.com 1.10,2013-02-10 02:11:00,
2013-02-09 20:26:00,28.6,27.0,29.99,East,92,6.0,12.0,92,0.00,,,0.00,weatherlink.com 1.10,2013-02-10 02:26:00,
2013-02-09 20:41:00,28.4,27.0,29.99,SE,137,4.0,13.0,93,0.00,,,0.00,weatherlink.com 1.10,2013-02-10 02:41:00,
2013-02-09 20:56:00,28.4,27.0,29.99,SE,138,5.0,11.0,93,0.00,,,0.00,weatherlink.com 1.10,2013-02-10 02:56:00,
2013-02-09 21:11:00,28.3,27.0,29.99,ESE,122,5.0,11.0,93,0.00,,,0.00,weatherlink.com 1.10,2013-02-10 03:11:00,
2013-02-09 21:26:00,28.3,26.0,30.00,South,171,2.0,8.0,92,0.00,,,0.00,weatherlink.com 1.10,2013-02-10 03:26:00,
2013-02-09 21:41:00,28.4,27.0,29.99,SE,128,5.0,10.0,93,0.00,,,0.00,weatherlink.com 1.10,2013-02-10 03:41:00,
2013-02-09 21:56:00,28.4,26.0,29.99,South,181,4.0,10.0,92,0.00,,,0.00,weatherlink.com 1.10,2013-02-10 03:56:00,
2013-02-09 22:11:00,28.3,26.0,29.98,SSE,148,7.0,10.0,92,0.00,,,0.00,weatherlink.com 1.10,2013-02-10 04:11:00,
2013-02-09 22:26:00,28.4,26.0,29.99,East,80,3.0,10.0,92,0.00,,,0.00,weatherlink.com 1.10,2013-02-10 04:26:00,
2013-02-09 22:41:00,28.3,26.0,29.99,ESE,120,4.0,9.0,91,0.00,,,0.00,weatherlink.com 1.10,2013-02-10 04:41:00,
2013-02-09 22:56:00,28.4,26.0,29.99,SSE,159,5.0,11.0,91,0.00,,,0.00,weatherlink.com 1.10,2013-02-10 04:56:00,
2013-02-09 23:11:00,28.3,26.0,29.98,SSE,157,7.0,10.0,91,0.00,,,0.00,weatherlink.com 1.10,2013-02-10 05:11:00,
2013-02-09 23:26:00,28.2,26.0,29.98,SE,144,6.0,13.0,91,0.00,,,0.00,weatherlink.com 1.10,2013-02-10 05:26:00,
2013-02-09 23:41:00,28.1,26.0,29.98,SE,138,5.0,10.0,90,0.00,,,0.00,weatherlink.com 1.10,2013-02-10 05:41:00,
2013-02-09 23:56:00,28.0,26.0,29.97,South,184,6.0,13.0,90,0.00,,,0.00,weatherlink.com 1.10,2013-02-10 05:56:00,